COSMOS 2475 (743)

Last updated on Sun Apr 12 2026 00:03:25 GMT+0000 (Coordinated Universal Time)

1 37869U 11064C 26099.95859212 .00000042 00000+0 00000+0 0 9996 2 37869 65.2455 75.2735 0027448 255.5147 262.1491 2.13101622112316
UTC large
Height (km)
Speed (km/s)
/
Latitude / Longitude
Inclination (degrees)
Orbital Period (minutes)
Azimuth
Elevation
Range (km)
Doppler Factor

Next 0 passes for location: London (51.5072 / 0.1276)

Sorry there are no passes over London.
COSMOS 2475 (743)